Weather History for Cahokia, IL

Change the Weather History Date:

Friday, June 28, 2013

  Actual Average Record
Temperature  
Mean Temperature 82 °F -  
Max Temperature 91 °F 87 °F 107 °F (2012)
Min Temperature 73 °F 67 °F 57 °F (2006)
Cooling Degree Days 16    
Growing Degree Days 32 (Base 50)    
Moisture  
Dew Point 62 °F    
Average Humidity 55    
Maximum Humidity 90    
Minimum Humidity 31    
Precipitation  
Precipitation 0.01 in - - ()
Sea Level Pressure  
Sea Level Pressure 29.76 in    
Wind  
Wind Speed 7 mph (WNW)    
Max Wind Speed 20 mph    
Max Gust Speed 30 mph    
Visibility 10 miles    
Events      
Averages and records for this station are not official NWS values.
T = Trace of Precipitation, MM = Missing Value Source: NWS Daily Summary

Daily Weather History Graph

Daily Weather History Graph

Search for Another Location

Airport:

Trip Planner

Search our weather history database for the weather conditions in past years. The results will help you decide how hot, cold, wet, or windy it might be!

Date:

Astronomy

Jun. 28, 2013 Rise Set
Actual Time 5:38 AM CDT 8:29 PM CDT
Civil Twilight 5:07 AM CDT 9:00 PM CDT
Nautical Twilight 4:27 AM CDT 9:40 PM CDT
Astronomical Twilight 3:41 AM CDT 10:26 PM CDT
Moon No Moon Rise 11:42 AM CDT (6/28)
Length of Visible Light 15h 53m
Length of Day
14h 50m
Waning Gibbous, 66% of the Moon is Illuminated
Jun 28
Waning Gibbous
Jun 29
Last Quarter
Jul 8
New
Jul 15
First Quarter
Jul 22
Full

Hourly Weather History & Observations

Time (CDT) Temp. Heat Index Dew Point Humidity Pressure Visibility Wind Dir Wind Speed Gust Speed Precip Events Conditions
12:53 AM 78.1 °F - 70.0 °F 76% 29.83 in 10.0 mi Calm Calm - N/A   Partly Cloudy
1:53 AM 78.1 °F - 70.0 °F 76% 29.83 in 10.0 mi SW 4.6 mph - N/A   Mostly Cloudy
2:53 AM 77.0 °F - 71.1 °F 82% 29.81 in 10.0 mi SW 4.6 mph - N/A   Scattered Clouds
3:53 AM 75.9 °F - 72.0 °F 87% 29.80 in 10.0 mi SW 4.6 mph - 0.00 in   Overcast
4:53 AM 75.0 °F - 70.0 °F 84% 29.81 in 10.0 mi WSW 5.8 mph - 0.01 in   Scattered Clouds
5:53 AM 73.0 °F - 70.0 °F 90% 29.80 in 10.0 mi Calm Calm - N/A   Clear
6:53 AM 75.0 °F - 70.0 °F 84% 29.80 in 10.0 mi West 4.6 mph - N/A   Clear
7:53 AM 79.0 °F - 69.1 °F 72% 29.79 in 10.0 mi NW 9.2 mph - N/A   Clear
8:53 AM 82.0 °F 84.5 °F 66.9 °F 60% 29.79 in 10.0 mi NW 12.7 mph - N/A   Clear
9:53 AM 86.0 °F 87.6 °F 64.9 °F 49% 29.79 in 10.0 mi WNW 10.4 mph - N/A   Clear
10:53 AM 88.0 °F 87.6 °F 60.1 °F 39% 29.78 in 10.0 mi WNW 9.2 mph - N/A   Clear
11:53 AM 88.0 °F 87.9 °F 61.0 °F 40% 29.77 in 10.0 mi West 9.2 mph - N/A   Mostly Cloudy
12:53 PM 89.1 °F 89.3 °F 62.1 °F 40% 29.76 in 10.0 mi West 17.3 mph 26.5 mph N/A   Mostly Cloudy
1:53 PM 89.1 °F 88.8 °F 60.1 °F 38% 29.75 in 10.0 mi NW 18.4 mph 29.9 mph N/A   Scattered Clouds
2:53 PM 89.1 °F 88.8 °F 60.1 °F 38% 29.74 in 10.0 mi NNW 15.0 mph - N/A   Scattered Clouds
3:53 PM 90.0 °F 88.8 °F 57.9 °F 34% 29.73 in 10.0 mi NNW 17.3 mph 25.3 mph N/A   Scattered Clouds
4:53 PM 86.0 °F 84.9 °F 57.0 °F 37% 29.73 in 10.0 mi NW 16.1 mph 24.2 mph N/A   Scattered Clouds
5:53 PM 88.0 °F 85.9 °F 54.0 °F 31% 29.72 in 10.0 mi WNW 15.0 mph 24.2 mph N/A   Scattered Clouds
6:53 PM 84.9 °F 83.2 °F 53.1 °F 33% 29.71 in 10.0 mi NW 19.6 mph 28.8 mph N/A   Scattered Clouds
7:53 PM 82.9 °F 81.9 °F 54.0 °F 37% 29.71 in 10.0 mi NW 13.8 mph - N/A   Clear
8:53 PM 80.1 °F 80.1 °F 55.0 °F 42% 29.71 in 10.0 mi WNW 9.2 mph - N/A   Clear
9:53 PM 79.0 °F - 55.9 °F 45% 29.71 in 10.0 mi West 6.9 mph - N/A   Clear
10:53 PM 75.9 °F - 57.0 °F 52% 29.71 in 10.0 mi WSW 5.8 mph - N/A   Clear
11:53 PM 75.0 °F - 57.0 °F 53% 29.69 in 10.0 mi West 6.9 mph - N/A   Clear